Home   Weather   Gonaïves   Past weeks

Flag for Haiti Past Weather in Gonaïves, Haiti — Yesterday and Last 2 Weeks

Now
77 °F

Passing clouds.


Feels Like: 78 °F
Forecast: 78 / 94 °F
Wind: 6 mph from Southeast

Location: Santiago

Current Time: Aug 20, 2017 at 3:53:59 am

Latest Report: Aug 20, 2017 at 3:00 am


Visibility: N/A

Pressure: 29.89 "Hg

Humidity: 100%

Dew Point: 77 °F

Location of GonaïvesLocation

Past Weather in Gonaïves — Graph

°F

Gonaïves Temperature Yesterday

Maximum temperature yesterday: 91 °F (at 4:00 pm)
Minimum temperature yesterday: 72 °F (at 7:00 am)
Average temperature yesterday: 82 °F

High & Low Weather Summary for the Past Weeks

 TemperatureHumidityPressure
High93 °F (Aug 9, 4:00 pm)100% (Aug 5, 3:00 am)30.09 "Hg (Aug 5, 3:00 am)
Low72 °F (Aug 6, 6:00 am)46% (Aug 9, 3:00 pm)29.86 "Hg (Aug 19, 3:00 pm)
Average80 °F82%29.99 "Hg
* Reported Aug 5 2:00 am — Aug 20 2:00 am, Gonaïves. Weather by CustomWeather, © 2017

Note: Actual official high and low records may vary slightly from our data, if they occured in-between our weather recording intervals... More about our weather records

Advertising

Gonaïves Weather History for the Previous 24 Hours

Scroll right to see more
 ConditionsComfort  
Time TempWeatherWind HumidityBarometerVisibility
2:00 am
Sun, Aug 20
77 °FPassing clouds.5 mph94%29.92 "HgN/A
1:00 am79 °FRain. Passing clouds.7 mph94%30.01 "Hg4 mi
11:00 pm
Sat, Aug 19
81 °FPassing clouds.5 mph84%29.95 "HgN/A
10:00 pm81 °FPassing clouds.6 mph84%29.92 "HgN/A
9:00 pm82 °FPassing clouds.9 mph79%29.92 "HgN/A
8:00 pm82 °FPassing clouds.9 mph74%29.89 "HgN/A
7:00 pm84 °FScattered clouds.12 mph70%29.89 "HgN/A
6:00 pm88 °FScattered clouds.13 mph62%29.89 "HgN/A
5:00 pm91 °FScattered clouds.18 mph56%29.86 "HgN/A
4:00 pm91 °FScattered clouds.16 mph52%29.86 "HgN/A
3:00 pm90 °FScattered clouds.16 mph52%29.86 "HgN/A
2:00 pm90 °FScattered clouds.12 mph55%29.92 "HgN/A
1:00 pm90 °FScattered clouds.8 mph52%29.92 "HgN/A
12:00 pm88 °FScattered clouds.7 mph59%29.95 "HgN/A
11:00 am86 °FScattered clouds.14 mph66%29.95 "HgN/A
10:00 am86 °FPassing clouds.15 mph62%29.95 "HgN/A
9:00 am79 °FPassing clouds.6 mph84%29.95 "HgN/A
8:00 am73 °FPassing clouds.No wind94%29.95 "HgN/A
7:00 am72 °FScattered clouds.No wind100%29.92 "HgN/A
6:00 am73 °FPassing clouds.No wind100%29.92 "HgN/A
5:00 am73 °FPassing clouds.5 mph100%29.92 "HgN/A
4:00 am73 °FPassing clouds.6 mph100%29.92 "HgN/A
3:00 am75 °FPassing clouds.No wind94%29.92 "HgN/A
Weather by CustomWeather, © 2017

See weather overviewHow to use our weather pages